Weather in Tuzukley

Russia / Astrakhan Oblast     46°08′42″N   48°19′44″E
temp.,
°C
wind,
m/s
gust,
m/s
humid.,
%
clouds,
%
prec.,
mm/h
press.,
hPa
HPBL,
m
1 august, sun
sun101:00+23sse226348 0.0 101214
04:00+22sse126310 0.0 101111
07:00+25se115010 0.0 101289
10:00+33se352626 0.0 10121370
13:00+36s542345 0.2 10112648
16:00+36se442493 0.3 10102300
19:00+33s452498 0.0 1010508
22:00+26s34395 0.0 101147
2 august, mon
mon201:00+24ssw22425 0.0 101111
04:00+26ese1136100 0.0 101111
07:00+28ne233079 0.0 101284
10:00+36ese44165 0.0 10121116
13:00+40se661193 0.0 10114030
16:00+39ese7610100 0.0 10103090
19:00+35se571567 0.0 1011554
22:00+26sse333877 0.0 101125
3 august, tue
tue301:00+25sse334533 0.0 101121
04:00+25ssw113924 0.0 101111
07:00+28ene222895 0.0 101261
10:00+38ese331152 0.0 10111039
13:00+41sse5583 0.0 10104515
16:00+41sse7485 0.0 10094639
19:00+38s67120 0.0 1010565
22:00+28s33251 0.0 101128
4 august, wed
wed401:00+26ssw23280 0.0 101015
04:00+24sw22400 0.0 101111
07:00+28s22360 0.0 101159
10:00+38s34130 0.0 10111059
13:00+42ssw6691 0.0 10104026
16:00+41s7581 0.0 10093930
19:00+37s67145 0.0 1010533
22:00+27wsw333315 0.0 101121
5 august, thu
thu501:00+26wsw33378 0.0 101134
04:00+26nw223417 0.0 101013
07:00+28nne363819 0.0 1011154
10:00+35n892888 0.0 10121600
13:00+32n8832100 0.0 10131519
16:00+30nw4638100 0.0 1013787
19:00+32nw56310 0.0 10121516
22:00+26n34430 0.0 101348